Regional Weather Roundup
Issued by NWS Cleveland, OH

Home | Current Version | Previous Version | Graphics & Text | Print | Product List | Glossary On
Versions: 1 2 3 4 5 6 7 8 9 10 11 12 13 14 15 16 17 18 19 20 21 22 23 24 25 26 27 28 29 30 31 32 33 34 35 36 37 38 39 40 41 42 43 44 45 46 47 48 49 50
000
ASUS41 KCLE 021410
RWRCLE
OHIO REGIONAL WEATHER ROUNDUP
NATIONAL WEATHER SERVICE WILMINGTON, OH
1000 AM EDT TUE SEP 02 2014

NOTE: "FAIR" INDICATES FEW OR NO CLOUDS BELOW 12,000 FEET WITH NO
SIGNIFICANT WEATHER AND/OR OBSTRUCTIONS TO VISIBILITY.

OHZ001>008-015>018-024>027-034-035-043-044-021500-
   NORTHWEST OHIO

CITY           SKY/WX    TMP DP  RH WIND       PRES   REMARKS
DEFIANCE       CLOUDY    70  66  87 SW6       29.89F
FINDLAY        PTSUNNY   73  66  78 S8        29.90R
TOLEDO EXPRESS CLOUDY    69  66  90 SW6       29.88F
TOLEDO METCALF CLOUDY    72  65  78 SW10      29.89F
LIMA           PTSUNNY   71  66  84 SW9       29.91S
$$

OHZ009>014-019>023-028>033-038-089-021500-
   NORTHEAST OHIO

CITY           SKY/WX    TMP DP  RH WIND       PRES   REMARKS
CLE-HOPKINS    LGT RAIN  73  68  84 SW7       29.93F
CLE-LAKEFRONT  LGT RAIN  75  68  78 SW12      29.90F
CUY CO. ARPT   CLOUDY    75  72  88 W14       29.94F
LORAIN-ELYRIA  LGT RAIN  76  68  76 SW6       29.92F
ASHTABULA      PTSUNNY   76  69  79 SW13      29.93F
AKRON-CANTON   CLOUDY    75  68  78 W7        29.94F
WOOSTER        CLOUDY    73  69  87 W7        29.95F
MANSFIELD      CLOUDY    71  68  90 SE10      29.91F
YOUNGSTOWN     PTSUNNY   75  69  81 SW7       29.96F
$$

OHZ042-051>053-060>062-070>072-077>081-021500-
  SOUTHWEST OHIO

CITY           SKY/WX    TMP DP  RH WIND       PRES   REMARKS
CINC-COVINGTON LGT RAIN  68  66  93 S12       29.97S
CINC-LUNKEN    LGT RAIN  68  67  96 S5        29.96F
HAMILTON       CLOUDY    69  67  93 CALM      29.96S
DAYTON         PTSUNNY   71  66  84 SW8       29.95R
WRIGHT-PAT AFB CLOUDY    69  66  91 S7        29.93S
DAYTON GENERAL CLOUDY    69  66  90 S15       29.94R
WILMINGTON     CLOUDY    67  64  90 SE14      29.92F
$$

OHZ036-037-039>041-045>050-054>059-063>069-073>076-082>088-021500-
  CENTRAL AND SOUTHEAST OHIO

CITY           SKY/WX    TMP DP  RH WIND       PRES   REMARKS
COLUMBUS       LGT RAIN  72  67  84 SE7       29.94F
OSU AIRPORT    LGT RAIN  70  67  90 SE10      29.91F
BOLTON FIELD   CLOUDY    68  66  94 MISG      29.94F
RICKENBACK AFB LGT RAIN  69  64  82 SE6       29.95F
NEWARK         CLOUDY    71  66  84 SE3       29.95F
MARION         CLOUDY    72  66  81 S12       29.90F
LANCASTER      LGT RAIN  73  67  81 S3        29.98F
ZANESVILLE     CLOUDY    72  69  90 S6        29.99S
NEW PHILLY     CLOUDY    74  72  93 S3        29.97F
$$



USA.gov is the U.S. government's official web portal to all federal, state and local government web resources and services.